Location: Newark
(27.9675°N, 86.8869°E)
Time: 21:49:55
(UTC+00:00)

Vanguard 3 - Pass Details

Date: 30 October 2019
Orbit: 508 x 3263 km, 33.3° (Epoch: 11 November)

Event Time Altitude Azimuth Distance (km) Brightness Sun altitude
Rises 20:06:55 0° 282° (WNW) 2,630 - -56.5°
Reaches altitude 10° 20:09:11 10° 271° (W) 1,710 - -56.0°
Maximum altitude 20:12:30 32° 206° (SSW) 924 - -55.3°
Drops below altitude 10° 20:16:21 10° 142° (SE) 2,001 - -54.5°
Sets 20:19:14 0° 132° (SE) 3,176 - -53.9°
